Date String (YYYY-MM-DD hh:mm:ss) UTC,Instrument flags,absolute air pressure of the measurement (hPa),sample flow rate (lpm),inlet stack bypass flow (lpm),air temperature of the measurement (°C),ambient temperature measured by the external sensor (°C),aerosol sample conditioner tube jacket temperature (°C),OPC LED temperature (°C),internal box temperature (°C),relative humidity of the measurement (%),span deviation,mass concentration of particles derived from Lorenz-Mie calculation of OPC scattering (μg/m³),mass concentration of particles derived from Lorenz-Mie calculation of OPC scattering (μg/m³),mass concentration of particles derived from Lorenz-Mie calculation of OPC scattering (μg/m³)
DateTimeUTC,F1_M11,P_M11,Q1_M11,Q2_M11,T1_M11,T2_M11,T3_M11,T4_M11,T5_M11,U1_M11,ZSPAN_M11,X0_M11,X2_M11,X1_M11
2023-08-21 03:00:00,SystemResetWarning,0833.9,5.00,000.00,028.4,024.1,000.0,036.5,029.4,33.5,0001.2,0020.85,0011.45,0010.05
2023-08-21 03:01:00,SystemResetWarning,0834.0,5.00,000.00,028.3,023.8,000.0,036.5,029.3,33.5,0001.0,0021.53,0011.41,0010.02
2023-08-21 03:02:00,SystemResetWarning,0834.0,5.01,000.00,028.2,024.1,000.0,036.5,029.1,33.5,0000.6,0021.77,0011.43,0010.00
2023-08-21 03:03:00,SystemResetWarning,0834.0,5.00,000.00,028.1,024.5,000.0,036.5,029.2,33.4,0000.7,0022.37,0011.41,0009.97
2023-08-21 03:04:00,SystemResetWarning,0834.0,5.00,000.00,028.1,025.0,000.0,036.5,029.4,33.7,0000.9,0022.49,0011.35,0009.93
2023-08-21 03:05:00,SystemResetWarning,0834.0,5.00,000.00,028.1,025.4,000.0,036.5,029.5,33.5,0001.2,0022.90,0011.26,0009.89
2023-08-21 03:06:00,SystemResetWarning,0834.0,5.01,000.00,028.1,025.8,000.0,036.5,029.6,33.3,0001.0,0022.67,0011.21,0009.86
2023-08-21 03:07:00,SystemResetWarning,0834.0,5.00,000.00,028.2,026.1,000.0,036.5,029.7,32.8,0000.7,0021.88,0011.19,0009.84
2023-08-21 03:08:00,SystemResetWarning,0834.0,5.00,000.00,028.2,026.4,000.0,036.5,029.8,32.7,0000.8,0021.48,0011.13,0009.79
2023-08-21 03:09:00,SystemResetWarning,0834.0,5.00,000.00,028.3,026.6,000.0,036.6,029.8,32.8,0000.3,0021.30,0011.14,0009.77
2023-08-21 03:10:00,SystemResetWarning,0834.1,4.99,000.00,028.3,025.7,000.0,036.5,029.7,32.8,0001.0,0021.25,0011.07,0009.74
2023-08-21 03:11:00,SystemResetWarning,0834.0,5.00,000.00,028.2,024.2,000.0,036.4,029.4,32.9,0001.0,0021.84,0011.01,0009.71
2023-08-21 03:12:00,SystemResetWarning,0834.0,5.01,000.00,028.1,023.8,000.0,036.3,029.2,32.6,0001.1,0021.32,0011.01,0009.68
2023-08-21 03:13:00,SystemResetWarning,0834.1,4.99,000.00,028.0,023.9,000.0,036.3,028.9,33.0,0001.2,0020.59,0010.94,0009.64
2023-08-21 03:14:00,SystemResetWarning,0834.1,4.99,000.00,027.9,024.3,000.0,036.3,029.1,33.0,0001.0,0019.85,0010.87,0009.60
2023-08-21 03:15:00,SystemResetWarning,0834.1,5.00,000.00,027.9,024.8,000.0,036.3,029.3,33.2,0001.2,0019.26,0010.82,0009.59
2023-08-21 03:16:00,SystemResetWarning,0834.1,5.01,000.00,027.9,025.3,000.0,036.3,029.4,33.2,0001.4,0018.86,0010.79,0009.58
2023-08-21 03:17:00,SystemResetWarning,0834.1,5.01,000.00,028.0,025.7,000.0,036.4,029.5,32.8,0001.4,0019.06,0010.76,0009.56
2023-08-21 03:18:00,SystemResetWarning,0834.1,5.00,000.00,028.0,026.0,000.0,036.4,029.6,33.0,0001.2,0018.87,0010.72,0009.53
2023-08-21 03:19:00,SystemResetWarning,0834.1,5.00,000.00,028.0,026.3,000.0,036.4,029.7,33.0,0000.9,0018.63,0010.74,0009.52
2023-08-21 03:20:00,SystemResetWarning,0834.1,4.99,000.00,028.1,026.3,000.0,036.4,029.7,32.5,0001.3,0018.88,0010.69,0009.50
2023-08-21 03:21:00,SystemResetWarning,0834.1,4.99,000.00,028.1,025.0,000.0,036.3,029.5,32.7,0001.3,0018.79,0010.69,0009.51
2023-08-21 03:22:00,SystemResetWarning,0834.1,5.00,000.00,028.0,023.8,000.0,036.2,029.2,32.8,0001.3,0018.60,0010.71,0009.49
2023-08-21 03:23:00,SystemResetWarning,0834.1,5.01,000.00,027.9,023.6,000.0,036.2,029.0,32.3,0001.2,0018.77,0010.68,0009.48
2023-08-21 03:24:00,SystemResetWarning,0834.2,5.01,000.00,027.8,023.9,000.0,036.2,028.9,32.3,0001.2,0018.85,0010.66,0009.46
2023-08-21 03:25:00,SystemResetWarning,0834.2,4.99,000.00,027.7,024.4,000.0,036.2,029.0,32.6,0001.0,0018.91,0010.66,0009.45
2023-08-21 03:26:00,SystemResetWarning,0834.2,4.99,000.00,027.7,024.9,000.0,036.2,029.2,32.5,0000.9,0019.45,0010.65,0009.45
2023-08-21 03:27:00,SystemResetWarning,0834.1,5.00,000.00,027.8,025.3,000.0,036.2,029.4,32.5,0000.1,0019.10,0010.63,0009.42
2023-08-21 03:28:00,SystemResetWarning,0834.2,5.01,000.00,027.8,025.7,000.0,036.2,029.5,32.4,-000.4,0018.44,0010.56,0009.41
2023-08-21 03:29:00,SystemResetWarning,0834.2,5.00,000.00,027.9,026.0,000.0,036.2,029.5,32.3,-000.1,0018.14,0010.52,0009.37
2023-08-21 03:30:00,SystemResetWarning,0834.2,4.99,000.00,027.9,026.3,000.0,036.3,029.6,32.7,0000.3,0017.77,0010.46,0009.35
2023-08-21 03:31:00,SystemResetWarning,0834.2,5.00,000.00,028.0,026.5,000.0,036.3,029.7,31.9,0000.2,0017.26,0010.48,0009.34
2023-08-21 03:32:00,SystemResetWarning,0834.2,5.00,000.00,028.0,026.2,000.0,036.3,029.7,32.0,0000.3,0016.98,0010.44,0009.30
2023-08-21 03:33:00,SystemResetWarning,0834.1,5.00,000.00,028.0,024.7,000.0,036.2,029.4,31.7,0000.4,0016.49,0010.39,0009.28
2023-08-21 03:34:00,SystemResetWarning,0834.1,5.00,000.00,027.9,023.8,000.0,036.1,029.2,31.7,0000.4,0015.93,0010.39,0009.24
2023-08-21 03:35:00,SystemResetWarning,0834.1,5.01,000.00,027.8,023.7,000.0,036.1,029.0,32.1,0000.6,0016.84,0010.40,0009.22
2023-08-21 03:36:00,SystemResetWarning,0834.1,5.02,000.00,027.7,024.1,000.0,036.1,028.9,32.1,0000.6,0016.41,0010.29,0009.17
2023-08-21 03:37:00,SystemResetWarning,0834.2,5.00,000.00,027.7,024.5,000.0,036.1,029.1,32.6,0000.3,0016.17,0010.22,0009.11
2023-08-21 03:38:00,SystemResetWarning,0834.1,5.00,000.00,027.7,025.0,000.0,036.1,029.3,32.4,0000.0,0016.17,0010.19,0009.06
2023-08-21 03:39:00,SystemResetWarning,0834.1,5.01,000.00,027.7,025.4,000.0,036.1,029.4,31.9,0000.4,0016.88,0010.19,0009.02
2023-08-21 03:40:00,SystemResetWarning,0834.1,5.00,000.00,027.8,025.8,000.0,036.2,029.5,31.8,0000.3,0018.14,0010.20,0009.01
2023-08-21 03:41:00,SystemResetWarning,0834.1,5.00,000.00,027.8,026.1,000.0,036.2,029.6,31.6,0000.4,0018.09,0010.16,0009.00
2023-08-21 03:42:00,SystemResetWarning,0834.2,5.00,000.00,027.9,026.4,000.0,036.2,029.6,31.5,0000.6,0018.05,0010.10,0008.96
2023-08-21 03:43:00,SystemResetWarning,0834.2,5.00,000.00,027.9,026.6,000.0,036.2,029.7,31.5,0000.7,0018.05,0010.05,0008.94
2023-08-21 03:44:00,SystemResetWarning,0834.2,4.99,000.00,028.0,026.5,000.0,036.2,029.8,31.2,0000.5,0018.69,0010.09,0008.94
2023-08-21 03:45:00,SystemResetWarning,0834.2,4.99,000.00,027.9,025.2,000.0,036.1,029.4,31.2,0000.7,0018.90,0010.09,0008.96
2023-08-21 03:46:00,SystemResetWarning,0834.2,5.00,000.00,027.8,023.9,000.0,036.1,029.1,31.5,0000.8,0018.36,0010.03,0008.98
2023-08-21 03:47:00,SystemResetWarning,0834.2,5.01,000.00,027.8,023.7,000.0,036.0,029.0,31.8,0001.0,0019.34,0010.05,0008.97
2023-08-21 03:48:00,SystemResetWarning,0834.2,5.01,000.00,027.7,024.0,000.0,036.0,028.8,31.8,0001.3,0019.67,0010.11,0008.99
2023-08-21 03:49:00,SystemResetWarning,0834.2,5.00,000.00,027.6,024.4,000.0,036.1,029.0,32.0,0001.7,0019.72,0010.08,0009.01
2023-08-21 03:50:00,SystemResetWarning,0834.2,5.00,000.00,027.6,024.9,000.0,036.1,029.2,32.0,0001.7,0019.16,0010.02,0008.99
2023-08-21 03:51:00,SystemResetWarning,0834.5,5.01,000.00,027.7,025.3,000.0,036.1,029.3,31.9,0001.7,0017.70,0009.99,0008.99
2023-08-21 03:52:00,SystemResetWarning,0834.5,5.00,000.00,027.7,025.7,000.0,036.1,029.4,31.7,0001.9,0017.88,0010.05,0008.99
2023-08-21 03:53:00,SystemResetWarning,0834.2,5.00,000.00,027.8,026.0,000.0,036.1,029.5,31.8,0001.8,0017.88,0010.04,0008.98
2023-08-21 03:54:00,SystemResetWarning,0834.2,5.00,000.00,027.8,026.3,000.0,036.2,029.6,31.3,0001.6,0017.89,0010.08,0008.95
2023-08-21 03:55:00,SystemResetWarning,0834.2,5.00,000.00,027.9,026.5,000.0,036.2,029.7,31.0,0001.4,0017.65,0010.02,0008.92
2023-08-21 03:56:00,SystemResetWarning,0834.2,5.00,000.00,027.9,026.7,000.0,036.2,029.8,31.1,0001.2,0017.70,0009.97,0008.88
2023-08-21 03:57:00,SystemResetWarning,0834.3,4.99,000.00,028.0,026.5,000.0,036.2,029.7,31.2,0000.6,0018.33,0009.92,0008.82
2023-08-21 03:58:00,SystemResetWarning,0834.2,4.99,000.00,027.9,024.9,000.0,036.1,029.4,31.3,0000.5,0018.13,0009.91,0008.80
2023-08-21 03:59:00,SystemResetWarning,0834.2,5.00,000.00,027.8,023.8,000.0,036.0,029.1,31.3,0000.5,0018.00,0009.85,0008.76
